| time (UTC) | temp F | wind direction | speed knots | gust knots | rain 1hr in | rain 24hr in | rain mn in | humidity % | barometer mb |
| 20260906195530 | 81 | 170 | 1.7 | 8.7 | 0.00 | 0.43 | 0.43 | 75 | 1015.4 |
| 20260906195030 | 80 | 182 | 1.7 | 8.7 | 0.00 | 0.43 | 0.43 | 75 | 1015.6 |
| 20260906194552 | 80 | 35 | 2.6 | 7.8 | 0.00 | 0.43 | 0.43 | 74 | 1015.7 |
| 20260906194030 | 80 | 80 | 1.7 | 7.0 | 0.00 | 0.43 | 0.43 | 76 | 1015.8 |
| 20260906193531 | 80 | 84 | 0.9 | 7.8 | 0.00 | 0.43 | 0.43 | 78 | 1015.9 |
| 20260906193050 | 79 | 89 | 3.5 | 7.8 | 0.00 | 0.43 | 0.43 | 78 | 1016.1 |
| 20260906192530 | 78 | 63 | 2.6 | 7.0 | 0.00 | 0.43 | 0.43 | 78 | 1016.2 |
| 20260906192030 | 78 | 90 | 2.6 | 7.8 | 0.00 | 0.43 | 0.43 | 78 | 1016.2 |
| 20260906191550 | 78 | 90 | 1.7 | 7.8 | 0.00 | 0.43 | 0.43 | 80 | 1016.4 |
| 20260906191031 | 77 | 88 | 3.5 | 11.3 | 0.00 | 0.43 | 0.43 | 80 | 1016.4 |
| 20260906190531 | 77 | 80 | 3.5 | 11.3 | 0.00 | 0.43 | 0.43 | 81 | 1016.4 |
| 20260906190051 | 76 | 37 | 5.2 | 11.3 | 0.00 | 0.43 | 0.43 | 81 | 1016.6 |
| 20260906185533 | 76 | 56 | 4.3 | 9.6 | 0.00 | 0.43 | 0.43 | 82 | 1016.5 |
| 20260906185030 | 76 | 69 | 4.3 | 10.4 | 0.00 | 0.43 | 0.43 | 82 | 1016.7 |
| 20260906184549 | 76 | 20 | 5.2 | 11.3 | 0.00 | 0.43 | 0.43 | 84 | 1016.6 |
| 20260906184032 | 75 | 63 | 4.3 | 11.3 | 0.00 | 0.43 | 0.43 | 83 | 1016.8 |
| 20260906183532 | 75 | 19 | 4.3 | 13.9 | 0.00 | 0.43 | 0.43 | 83 | 1016.9 |
| 20260906183108 | 75 | 67 | 5.2 | 13.9 | 0.00 | 0.43 | 0.43 | 83 | 1017.1 |
| 20260906182530 | 74 | 39 | 7.0 | 13.9 | 0.00 | 0.43 | 0.43 | 83 | 1017.2 |
| 20260906182033 | 74 | 56 | 6.1 | 12.2 | 0.00 | 0.43 | 0.43 | 84 | 1017.2 |
| 20260906181556 | 74 | 71 | 2.6 | 13.0 | 0.00 | 0.43 | 0.43 | 85 | 1017.4 |
| 20260906181030 | 74 | 32 | 7.0 | 13.0 | 0.00 | 0.43 | 0.43 | 86 | 1017.3 |
| 20260906180532 | 74 | 36 | 5.2 | 11.3 | 0.00 | 0.43 | 0.43 | 88 | 1017.3 |
| 20260906180113 | 74 | 25 | 5.2 | 10.4 | 0.00 | 0.43 | 0.43 | 89 | 1017.2 |
| 20260906175531 | 73 | 24 | 5.2 | 10.4 | 0.00 | 0.43 | 0.43 | 89 | 1017.3 |
| 20260906175030 | 73 | 44 | 5.2 | 11.3 | 0.00 | 0.43 | 0.43 | 89 | 1017.4 |
| 20260906174548 | 73 | 19 | 3.5 | 11.3 | 0.00 | 0.43 | 0.43 | 91 | 1017.5 |
| 20260906174031 | 73 | 71 | 3.5 | 11.3 | 0.00 | 0.43 | 0.43 | 91 | 1017.5 |
| 20260906173532 | 73 | 38 | 5.2 | 12.2 | 0.00 | 0.43 | 0.43 | 91 | 1017.4 |
| 20260906173054 | 73 | 71 | 5.2 | 12.2 | 0.00 | 0.43 | 0.43 | 92 | 1017.4 |
| 20260906172530 | 73 | 21 | 5.2 | 15.6 | 0.00 | 0.43 | 0.43 | 93 | 1017.5 |
| 20260906172033 | 72 | 348 | 4.3 | 15.6 | 0.00 | 0.43 | 0.43 | 93 | 1017.4 |
| 20260906171552 | 71 | 28 | 7.8 | 15.6 | 0.00 | 0.43 | 0.43 | 92 | 1017.6 |
| 20260906171031 | 71 | 5 | 5.2 | 11.3 | 0.00 | 0.43 | 0.43 | 93 | 1017.8 |
| 20260906170531 | 70 | 38 | 4.3 | 11.3 | 0.00 | 0.43 | 0.43 | 93 | 1017.9 |
| 20260906170050 | 70 | 37 | 3.5 | 13.0 | 0.01 | 0.43 | 0.43 | 93 | 1017.9 |
| 20260906165530 | 69 | 342 | 4.3 | 14.8 | 0.03 | 0.43 | 0.43 | 92 | 1017.9 |
| 20260906165031 | 69 | 344 | 9.6 | 14.8 | 0.03 | 0.43 | 0.43 | 92 | 1018.1 |
| 20260906164546 | 69 | 37 | 9.6 | 14.8 | 0.03 | 0.43 | 0.43 | 93 | 1018.0 |
| 20260906164031 | 69 | 335 | 8.7 | 13.0 | 0.03 | 0.43 | 0.43 | 93 | 1018.1 |
| 20260906163532 | 69 | 315 | 6.1 | 13.0 | 0.03 | 0.43 | 0.43 | 93 | 1018.3 |
| 20260906163058 | 69 | 295 | 7.0 | 16.5 | 0.03 | 0.43 | 0.43 | 94 | 1018.1 |
| 20260906162531 | 69 | 329 | 8.7 | 16.5 | 0.03 | 0.43 | 0.43 | 94 | 1017.7 |
| 20260906162030 | 69 | 311 | 7.8 | 12.2 | 0.03 | 0.43 | 0.43 | 94 | 1017.6 |
| 20260906161557 | 69 | 264 | 7.0 | 12.2 | 0.03 | 0.43 | 0.43 | 94 | 1017.7 |
| 20260906161030 | 69 | 290 | 6.1 | 10.4 | 0.03 | 0.43 | 0.43 | 94 | 1017.5 |
| 20260906160531 | 69 | 342 | 6.1 | 9.6 | 0.03 | 0.43 | 0.43 | 94 | 1016.9 |
| 20260906160049 | 70 | 301 | 4.3 | 7.8 | 0.02 | 0.41 | 0.41 | 94 | 1016.8 |
| 20260906155531 | 69 | 275 | 2.6 | 7.0 | 0.01 | 0.41 | 0.40 | 94 | 1016.8 |
| 20260906155030 | 69 | 316 | 1.7 | 7.0 | 0.02 | 0.41 | 0.40 | 94 | 1016.7 |
| 20260906154546 | 69 | 340 | 3.5 | 7.0 | 0.02 | 0.41 | 0.40 | 94 | 1016.6 |
| 20260906154030 | 69 | 355 | 2.6 | 5.2 | 0.02 | 0.41 | 0.40 | 94 | 1016.5 |
| 20260906153530 | 69 | 333 | 1.7 | 5.2 | 0.02 | 0.41 | 0.40 | 94 | 1016.8 |
| 20260906153043 | 69 | 21 | 0.9 | 5.2 | 0.02 | 0.41 | 0.40 | 94 | 1017.0 |
| 20260906152534 | 69 | 0 | 0.9 | 7.0 | 0.03 | 0.41 | 0.40 | 95 | 1017.1 |
| 20260906152031 | 69 | 39 | 2.6 | 7.0 | 0.07 | 0.41 | 0.40 | 95 | 1017.1 |
| 20260906151550 | 69 | 22 | 1.7 | 5.2 | 0.11 | 0.41 | 0.40 | 94 | 1017.5 |
| 20260906151030 | 69 | 0 | 0.9 | 6.1 | 0.22 | 0.41 | 0.40 | 95 | 1018.0 |
| 20260906150533 | 69 | 55 | 1.7 | 6.1 | 0.26 | 0.40 | 0.39 | 94 | 1018.0 |
| 20260906150057 | 69 | 0 | 0.9 | 6.1 | 0.27 | 0.40 | 0.39 | 94 | 1018.4 |
| 20260906145533 | 69 | 105 | 0.0 | 8.7 | 0.30 | 0.40 | 0.39 | 94 | 1018.6 |
| 20260906145031 | 69 | 153 | 1.7 | 8.7 | 0.29 | 0.39 | 0.38 | 94 | 1018.3 |
| 20260906144559 | 69 | 153 | 3.5 | 7.8 | 0.29 | 0.39 | 0.38 | 94 | 1018.1 |
| 20260906144030 | 69 | 173 | 1.7 | 7.0 | 0.29 | 0.39 | 0.38 | 93 | 1017.5 |
| 20260906143530 | 69 | 148 | 1.7 | 8.7 | 0.29 | 0.39 | 0.38 | 93 | 1016.6 |
| 20260906143053 | 69 | 294 | 4.3 | 8.7 | 0.28 | 0.38 | 0.37 | 93 | 1016.1 |
| 20260906142530 | 69 | 337 | 4.3 | 7.8 | 0.28 | 0.38 | 0.37 | 93 | 1016.2 |
| 20260906142030 | 69 | 293 | 1.7 | 6.1 | 0.22 | 0.32 | 0.31 | 94 | 1017.1 |
| 20260906141550 | 70 | 0 | 1.7 | 6.1 | 0.20 | 0.30 | 0.29 | 93 | 1017.6 |
| 20260906141030 | 71 | 194 | 2.6 | 5.2 | 0.09 | 0.18 | 0.17 | 94 | 1017.9 |
| 20260906140534 | 71 | 148 | 0.0 | 2.6 | 0.05 | 0.14 | 0.13 | 94 | 1017.7 |
| 20260906140044 | 71 | 0 | 0.0 | 2.6 | 0.03 | 0.12 | 0.11 | 94 | 1017.6 |
| 20260906135534 | 71 | 0 | 0.0 | 2.6 | 0.01 | 0.10 | 0.09 | 94 | 1017.3 |
| 20260906135030 | 71 | 0 | 0.0 | 2.6 | 0.01 | 0.10 | 0.09 | 94 | 1017.2 |
| 20260906134556 | 71 | 0 | 0.0 | 1.7 | 0.01 | 0.10 | 0.09 | 94 | 1017.2 |
| 20260906134031 | 71 | 0 | 0.0 | 0.0 | 0.01 | 0.10 | 0.09 | 94 | 1016.9 |
| 20260906133530 | 71 | 0 | 0.0 | 0.0 | 0.01 | 0.10 | 0.09 | 93 | 1016.8 |
| 20260906133049 | 71 | 0 | 0.0 | 0.9 | 0.01 | 0.10 | 0.09 | 93 | 1016.6 |
| 20260906132530 | 71 | 0 | 0.0 | 1.7 | 0.01 | 0.10 | 0.09 | 93 | 1016.5 |
| 20260906132030 | 71 | 0 | 0.0 | 4.3 | 0.01 | 0.10 | 0.09 | 93 | 1016.4 |
| 20260906131547 | 71 | 70 | 1.7 | 4.3 | 0.01 | 0.10 | 0.09 | 93 | 1016.4 |
| 20260906131031 | 71 | 0 | 0.0 | 2.6 | 0.00 | 0.09 | 0.08 | 93 | 1016.4 |
| 20260906130530 | 71 | 0 | 0.0 | 0.0 | 0.00 | 0.09 | 0.08 | 92 | 1016.6 |
| 20260906130105 | 72 | 0 | 0.0 | 0.0 | 0.00 | 0.09 | 0.08 | 92 | 1016.5 |
| 20260906125532 | 72 | 0 | 0.0 | 0.9 | 0.00 | 0.09 | 0.08 | 92 | 1016.5 |
| 20260906125031 | 72 | 0 | 0.0 | 1.7 | 0.00 | 0.09 | 0.08 | 92 | 1016.4 |
| 20260906124551 | 72 | 274 | 0.0 | 3.5 | 0.03 | 0.09 | 0.08 | 92 | 1016.3 |
| 20260906124030 | 72 | 0 | 1.7 | 4.3 | 0.08 | 0.09 | 0.08 | 92 | 1016.2 |
| 20260906123531 | 72 | 257 | 1.7 | 8.7 | 0.08 | 0.09 | 0.08 | 92 | 1016.2 |
| 20260906123049 | 72 | 0 | 2.6 | 10.4 | 0.08 | 0.09 | 0.08 | 92 | 1016.1 |
| 20260906122533 | 71 | 219 | 3.5 | 10.4 | 0.08 | 0.09 | 0.08 | 93 | 1015.9 |
| 20260906122030 | 71 | 254 | 6.1 | 12.2 | 0.08 | 0.09 | 0.08 | 93 | 1015.8 |
| 20260906121546 | 71 | 262 | 6.1 | 12.2 | 0.08 | 0.09 | 0.08 | 94 | 1015.7 |
| 20260906121030 | 72 | 262 | 6.1 | 9.6 | 0.08 | 0.09 | 0.08 | 95 | 1015.8 |
| 20260906120530 | 72 | 246 | 4.3 | 10.4 | 0.08 | 0.09 | 0.08 | 95 | 1015.9 |
| 20260906120054 | 73 | 236 | 6.1 | 10.4 | 0.08 | 0.09 | 0.08 | 95 | 1016.2 |
| 20260906115532 | 73 | 215 | 6.1 | 11.3 | 0.08 | 0.09 | 0.08 | 95 | 1016.1 |
| 20260906115032 | 73 | 213 | 7.8 | 11.3 | 0.08 | 0.09 | 0.08 | 95 | 1015.9 |
| 20260906114605 | 73 | 220 | 7.0 | 8.7 | 0.05 | 0.06 | 0.05 | 95 | 1015.8 |
| 20260906114029 | 73 | 200 | 3.5 | 5.2 | 0.00 | 0.01 | 0.00 | 95 | 1015.9 |
| 20260906113529 | 73 | 207 | 2.6 | 3.5 | 0.00 | 0.01 | 0.00 | 95 | 1016.0 |
| 20260906113056 | 73 | 178 | 0.9 | 4.3 | 0.00 | 0.01 | 0.00 | 95 | 1015.9 |
| 20260906112530 | 73 | 178 | 1.7 | 5.2 | 0.00 | 0.01 | 0.00 | 95 | 1016.0 |
| 20260906112030 | 73 | 195 | 3.5 | 5.2 | 0.00 | 0.01 | 0.00 | 95 | 1015.9 |
| 20260906111545 | 73 | 196 | 0.9 | 7.8 | 0.00 | 0.01 | 0.00 | 95 | 1015.5 |
| 20260906111030 | 73 | 194 | 4.3 | 7.8 | 0.00 | 0.01 | 0.00 | 95 | 1015.6 |
| 20260906110530 | 73 | 211 | 0.0 | 5.2 | 0.00 | 0.01 | 0.00 | 95 | 1015.3 |
| 20260906110050 | 73 | 148 | 0.9 | 5.2 | 0.00 | 0.01 | 0.00 | 95 | 1014.8 |
| 20260906105532 | 73 | 0 | 0.0 | 4.3 | 0.00 | 0.01 | 0.00 | 95 | 1014.8 |
| 20260906105033 | 73 | 0 | 0.0 | 2.6 | 0.00 | 0.01 | 0.00 | 95 | 1014.7 |
| 20260906104547 | 73 | 113 | 0.0 | 2.6 | 0.00 | 0.01 | 0.00 | 95 | 1014.5 |
| 20260906104031 | 73 | 0 | 0.0 | 2.6 | 0.00 | 0.01 | 0.00 | 95 | 1014.5 |
| 20260906103530 | 73 | 0 | 0.0 | 0.9 | 0.00 | 0.01 | 0.00 | 95 | 1014.5 |
| 20260906103053 | 73 | 0 | 0.0 | 0.9 | 0.00 | 0.01 | 0.00 | 95 | 1014.3 |
| 20260906102530 | 73 | 0 | 0.0 | 2.6 | 0.00 | 0.01 | 0.00 | 95 | 1014.3 |
| 20260906102033 | 73 | 78 | 0.0 | 2.6 | 0.00 | 0.01 | 0.00 | 95 | 1014.5 |
| 20260906101550 | 73 | 0 | 0.0 | 0.9 | 0.00 | 0.01 | 0.00 | 95 | 1014.5 |
| 20260906101029 | 73 | 0 | 0.0 | 0.9 | 0.00 | 0.01 | 0.00 | 95 | 1014.5 |
| 20260906100532 | 73 | 0 | 0.0 | 3.5 | 0.00 | 0.01 | 0.00 | 95 | 1014.5 |
| 20260906100252 | 73 | 0 | 0.0 | 3.5 | 0.00 | 0.01 | 0.00 | 95 | 1014.6 |
| 20260906095530 | 73 | 135 | 0.0 | 3.5 | 0.00 | 0.01 | 0.00 | 95 | 1014.6 |
| 20260906095030 | 73 | 119 | 0.0 | 3.5 | 0.00 | 0.01 | 0.00 | 95 | 1014.7 |
| 20260906094547 | 73 | 127 | 0.0 | 1.7 | 0.00 | 0.01 | 0.00 | 95 | 1014.7 |
| 20260906094030 | 73 | 127 | 0.0 | 0.0 | 0.00 | 0.01 | 0.00 | 95 | 1014.7 |
| 20260906093530 | 73 | 0 | 0.0 | 0.0 | 0.00 | 0.01 | 0.00 | 95 | 1014.6 |
| 20260906093043 | 73 | 0 | 0.0 | 0.9 | 0.00 | 0.01 | 0.00 | 95 | 1014.5 |
| 20260906092531 | 73 | 0 | 0.0 | 2.6 | 0.00 | 0.01 | 0.00 | 95 | 1014.4 |
| 20260906092033 | 73 | 127 | 0.0 | 2.6 | 0.00 | 0.01 | 0.00 | 95 | 1014.5 |
| 20260906091551 | 74 | 0 | 0.0 | 2.6 | 0.00 | 0.01 | 0.00 | 95 | 1014.4 |
| 20260906091033 | 74 | 0 | 0.0 | 2.6 | 0.00 | 0.01 | 0.00 | 95 | 1014.4 |
| 20260906090531 | 74 | 0 | 0.0 | 2.6 | 0.00 | 0.01 | 0.00 | 95 | 1014.5 |
| 20260906090056 | 74 | 0 | 0.0 | 4.3 | 0.00 | 0.01 | 0.00 | 95 | 1014.5 |
| 20260906085531 | 74 | 0 | 0.0 | 4.3 | 0.00 | 0.01 | 0.00 | 95 | 1014.5 |
| 20260906085029 | 74 | 0 | 0.0 | 3.5 | 0.00 | 0.01 | 0.00 | 95 | 1014.5 |
| 20260906084547 | 74 | 0 | 0.0 | 2.6 | 0.00 | 0.01 | 0.00 | 95 | 1014.6 |
| 20260906084029 | 74 | 0 | 0.0 | 2.6 | 0.00 | 0.01 | 0.00 | 95 | 1014.6 |
| 20260906083532 | 74 | 0 | 0.0 | 3.5 | 0.00 | 0.01 | 0.00 | 95 | 1014.6 |
| 20260906083052 | 74 | 0 | 0.0 | 3.5 | 0.00 | 0.01 | 0.00 | 95 | 1014.6 |
| 20260906082531 | 74 | 147 | 0.0 | 2.6 | 0.00 | 0.01 | 0.00 | 95 | 1014.7 |
| 20260906082033 | 74 | 0 | 0.0 | 0.0 | 0.00 | 0.01 | 0.00 | 95 | 1014.8 |
| 20260906081556 | 74 | 0 | 0.0 | 0.0 | 0.00 | 0.01 | 0.00 | 95 | 1014.9 |
| 20260906081031 | 74 | 0 | 0.0 | 0.0 | 0.00 | 0.01 | 0.00 | 95 | 1015.0 |
| 20260906080532 | 74 | 0 | 0.0 | 1.7 | 0.00 | 0.01 | 0.00 | 95 | 1015.0 |
| 20260906080050 | 74 | 0 | 0.0 | 3.5 | 0.00 | 0.01 | 0.00 | 95 | 1015.1 |
| 20260906075533 | 74 | 0 | 0.0 | 3.5 | 0.00 | 0.01 | 0.00 | 95 | 1015.1 |
| 20260906075031 | 74 | 0 | 0.0 | 3.5 | 0.00 | 0.01 | 0.00 | 94 | 1015.1 |
| 20260906074605 | 74 | 0 | 0.0 | 3.5 | 0.00 | 0.01 | 0.00 | 94 | 1015.1 |
| 20260906074032 | 74 | 0 | 0.0 | 3.5 | 0.00 | 0.01 | 0.00 | 94 | 1015.1 |
| 20260906073531 | 74 | 156 | 0.0 | 1.7 | 0.00 | 0.01 | 0.00 | 94 | 1015.1 |
| 20260906073044 | 74 | 0 | 0.0 | 3.5 | 0.00 | 0.01 | 0.00 | 94 | 1015.1 |
| 20260906072532 | 74 | 0 | 0.0 | 4.3 | 0.00 | 0.01 | 0.00 | 94 | 1015.1 |
| 20260906072035 | 74 | 136 | 0.0 | 4.3 | 0.00 | 0.01 | 0.00 | 94 | 1015.0 |
| 20260906071553 | 74 | 0 | 0.0 | 6.1 | 0.00 | 0.01 | 0.00 | 94 | 1015.0 |
| 20260906071033 | 74 | 0 | 0.0 | 6.1 | 0.00 | 0.01 | 0.00 | 94 | 1014.9 |
| 20260906070534 | 74 | 142 | 0.0 | 5.2 | 0.00 | 0.01 | 0.00 | 94 | 1014.7 |
| 20260906070048 | 75 | 169 | 0.0 | 5.2 | 0.00 | 0.01 | 0.00 | 94 | 1014.7 |
| 20260906065532 | 75 | 136 | 0.9 | 4.3 | 0.00 | 0.01 | 0.00 | 94 | 1014.9 |
| 20260906065033 | 75 | 0 | 0.0 | 5.2 | 0.00 | 0.01 | 0.00 | 93 | 1014.9 |
| 20260906064552 | 75 | 144 | 0.0 | 5.2 | 0.00 | 0.01 | 0.00 | 93 | 1015.0 |
| 20260906064029 | 75 | 0 | 0.0 | 3.5 | 0.00 | 0.01 | 0.00 | 93 | 1014.9 |
| 20260906063531 | 75 | 0 | 0.0 | 3.5 | 0.00 | 0.01 | 0.00 | 93 | 1014.9 |
| 20260906063052 | 75 | 107 | 0.0 | 4.3 | 0.00 | 0.01 | 0.00 | 93 | 1014.7 |
| 20260906062532 | 75 | 143 | 0.9 | 4.3 | 0.00 | 0.01 | 0.00 | 92 | 1014.8 |
| 20260906062034 | 75 | 156 | 0.9 | 4.3 | 0.00 | 0.01 | 0.00 | 92 | 1015.0 |
| 20260906061555 | 75 | 0 | 0.9 | 4.3 | 0.00 | 0.01 | 0.00 | 92 | 1015.0 |
| 20260906061032 | 75 | 152 | 0.9 | 5.2 | 0.00 | 0.01 | 0.00 | 92 | 1015.0 |
| 20260906060531 | 76 | 123 | 0.9 | 5.2 | 0.00 | 0.01 | 0.00 | 92 | 1015.0 |
| 20260906060047 | 76 | 148 | 0.0 | 5.2 | 0.00 | 0.01 | 0.00 | 92 | 1015.0 |
| 20260906055531 | 76 | 0 | 0.9 | 4.3 | 0.00 | 0.01 | 0.00 | 92 | 1015.0 |
| 20260906055031 | 76 | 0 | 0.9 | 6.1 | 0.00 | 0.01 | 0.00 | 91 | 1015.0 |
| 20260906054555 | 76 | 0 | 0.9 | 6.1 | 0.00 | 0.01 | 0.00 | 92 | 1015.1 |
| 20260906054033 | 76 | 0 | 0.9 | 6.1 | 0.00 | 0.01 | 0.00 | 91 | 1015.1 |
| 20260906053532 | 76 | 0 | 0.0 | 6.1 | 0.00 | 0.01 | 0.00 | 91 | 1015.1 |
| 20260906053048 | 76 | 116 | 0.9 | 6.1 | 0.00 | 0.01 | 0.00 | 92 | 1015.1 |
| 20260906052531 | 76 | 109 | 0.9 | 6.1 | 0.00 | 0.01 | 0.00 | 92 | 1015.1 |
| 20260906052031 | 76 | 0 | 0.0 | 5.2 | 0.00 | 0.01 | 0.00 | 91 | 1015.0 |
| 20260906051601 | 76 | 77 | 0.9 | 5.2 | 0.00 | 0.01 | 0.00 | 92 | 1015.0 |
| 20260906051032 | 76 | 0 | 0.0 | 5.2 | 0.00 | 0.01 | 0.00 | 92 | 1015.0 |
| 20260906050532 | 76 | 111 | 0.0 | 4.3 | 0.00 | 0.01 | 0.00 | 92 | 1015.1 |
| 20260906050055 | 76 | 0 | 0.0 | 5.2 | 0.00 | 0.01 | 0.00 | 92 | 1015.1 |
| 20260906045536 | 76 | 96 | 0.0 | 5.2 | 0.00 | 0.01 | 0.01 | 92 | 1015.2 |
| 20260906045035 | 76 | 185 | 0.0 | 4.3 | 0.00 | 0.01 | 0.01 | 92 | 1015.2 |
| 20260906044548 | 76 | 0 | 0.0 | 3.5 | 0.00 | 0.01 | 0.01 | 92 | 1015.1 |
| 20260906044033 | 76 | 112 | 0.0 | 2.6 | 0.00 | 0.01 | 0.01 | 92 | 1015.2 |
| 20260906043535 | 76 | 0 | 0.0 | 2.6 | 0.00 | 0.01 | 0.01 | 92 | 1015.2 |
| 20260906043045 | 76 | 105 | 0.0 | 1.7 | 0.00 | 0.01 | 0.01 | 92 | 1015.3 |
| 20260906042531 | 76 | 0 | 0.0 | 0.0 | 0.00 | 0.01 | 0.01 | 92 | 1015.3 |
| 20260906042031 | 76 | 0 | 0.0 | 0.0 | 0.00 | 0.01 | 0.01 | 92 | 1015.3 |
| 20260906041550 | 76 | 0 | 0.0 | 1.7 | 0.00 | 0.01 | 0.01 | 92 | 1015.3 |
| 20260906041032 | 76 | 0 | 0.0 | 1.7 | 0.00 | 0.01 | 0.01 | 92 | 1015.3 |
| 20260906040531 | 77 | 0 | 0.0 | 0.9 | 0.00 | 0.01 | 0.01 | 92 | 1015.3 |
| 20260906040052 | 77 | 0 | 0.0 | 3.5 | 0.00 | 0.01 | 0.01 | 92 | 1015.3 |
| 20260906035532 | 77 | 101 | 0.0 | 3.5 | 0.00 | 0.01 | 0.01 | 92 | 1015.2 |
| 20260906035031 | 77 | 0 | 0.0 | 5.2 | 0.00 | 0.01 | 0.01 | 92 | 1015.2 |
| 20260906034548 | 76 | 0 | 0.0 | 5.2 | 0.00 | 0.01 | 0.01 | 92 | 1015.2 |
| 20260906034032 | 76 | 0 | 0.0 | 2.6 | 0.00 | 0.01 | 0.01 | 92 | 1015.2 |
| 20260906033532 | 76 | 0 | 0.0 | 1.7 | 0.00 | 0.01 | 0.01 | 92 | 1015.2 |
| 20260906033048 | 76 | 0 | 0.0 | 1.7 | 0.00 | 0.01 | 0.01 | 92 | 1015.2 |
| 20260906032530 | 76 | 82 | 0.0 | 3.5 | 0.00 | 0.01 | 0.01 | 92 | 1015.2 |
| 20260906032031 | 76 | 82 | 0.0 | 3.5 | 0.00 | 0.01 | 0.01 | 92 | 1015.1 |
| 20260906031559 | 76 | 0 | 0.0 | 1.7 | 0.00 | 0.01 | 0.01 | 92 | 1015.1 |
| 20260906031031 | 76 | 0 | 0.0 | 2.6 | 0.00 | 0.01 | 0.01 | 92 | 1015.1 |
| 20260906030531 | 76 | 0 | 0.0 | 2.6 | 0.00 | 0.01 | 0.01 | 92 | 1015.2 |
| 20260906030050 | 76 | 99 | 0.0 | 2.6 | 0.00 | 0.01 | 0.01 | 92 | 1015.2 |
| 20260906025531 | 76 | 0 | 0.0 | 1.7 | 0.00 | 0.01 | 0.01 | 92 | 1015.1 |
| 20260906025034 | 76 | 0 | 0.0 | 1.7 | 0.00 | 0.01 | 0.01 | 92 | 1015.2 |
| 20260906024546 | 76 | 0 | 0.0 | 2.6 | 0.00 | 0.01 | 0.01 | 92 | 1015.3 |
| 20260906024031 | 76 | 0 | 0.0 | 2.6 | 0.00 | 0.01 | 0.01 | 92 | 1015.3 |
| 20260906023533 | 76 | 78 | 0.0 | 1.7 | 0.00 | 0.01 | 0.01 | 92 | 1015.3 |
| 20260906023051 | 76 | 0 | 0.0 | 0.9 | 0.00 | 0.01 | 0.01 | 92 | 1015.3 |
| 20260906022531 | 76 | 0 | 0.0 | 0.9 | 0.00 | 0.01 | 0.01 | 91 | 1015.2 |
| 20260906022031 | 76 | 0 | 0.0 | 0.9 | 0.00 | 0.01 | 0.01 | 91 | 1015.1 |
| 20260906021550 | 76 | 78 | 0.0 | 0.9 | 0.00 | 0.01 | 0.01 | 91 | 1015.0 |
| 20260906021031 | 76 | 0 | 0.0 | 0.9 | 0.00 | 0.01 | 0.01 | 91 | 1014.8 |
| 20260906020531 | 76 | 0 | 0.0 | 0.9 | 0.00 | 0.01 | 0.01 | 91 | 1014.7 |
| 20260906020051 | 76 | 0 | 0.0 | 0.0 | 0.00 | 0.01 | 0.01 | 90 | 1014.7 |
| 20260906015531 | 76 | 0 | 0.0 | 0.9 | 0.00 | 0.01 | 0.01 | 90 | 1014.4 |
| 20260906015031 | 76 | 0 | 0.0 | 0.9 | 0.00 | 0.01 | 0.01 | 89 | 1014.3 |
| 20260906014543 | 77 | 0 | 0.0 | 0.9 | 0.00 | 0.01 | 0.01 | 89 | 1014.2 |
| 20260906014030 | 77 | 0 | 0.0 | 0.9 | 0.00 | 0.01 | 0.01 | 88 | 1014.0 |
| 20260906013531 | 77 | 0 | 0.0 | 0.9 | 0.00 | 0.01 | 0.01 | 88 | 1013.8 |
| 20260906013050 | 78 | 0 | 0.0 | 1.7 | 0.00 | 0.01 | 0.01 | 87 | 1013.6 |
| 20260906012533 | 78 | 0 | 0.0 | 1.7 | 0.00 | 0.01 | 0.01 | 87 | 1013.5 |
| 20260906012030 | 79 | 0 | 0.0 | 0.0 | 0.00 | 0.01 | 0.01 | 86 | 1013.4 |
| 20260906011550 | 79 | 0 | 0.0 | 0.0 | 0.00 | 0.01 | 0.01 | 85 | 1013.3 |
| 20260906011031 | 80 | 0 | 0.0 | 0.0 | 0.00 | 0.01 | 0.01 | 84 | 1013.3 |
| 20260906010531 | 80 | 0 | 0.0 | 0.0 | 0.00 | 0.01 | 0.01 | 84 | 1013.3 |
| 20260906010047 | 81 | 0 | 0.0 | 0.9 | 0.00 | 0.01 | 0.01 | 83 | 1013.3 |
| 20260906005531 | 81 | 0 | 0.0 | 0.9 | 0.00 | 0.01 | 0.01 | 81 | 1013.4 |
| 20260906005033 | 82 | 0 | 0.0 | 0.9 | 0.00 | 0.01 | 0.01 | 81 | 1013.3 |
| 20260906004544 | 82 | 0 | 0.0 | 0.9 | 0.00 | 0.01 | 0.01 | 80 | 1013.4 |
| 20260906004031 | 82 | 0 | 0.0 | 2.6 | 0.00 | 0.01 | 0.01 | 79 | 1013.2 |
| 20260906003531 | 83 | 0 | 0.0 | 3.5 | 0.00 | 0.01 | 0.01 | 78 | 1013.3 |
| 20260906003054 | 83 | 0 | 0.9 | 4.3 | 0.00 | 0.01 | 0.01 | 78 | 1013.3 |
| 20260906002530 | 84 | 0 | 0.9 | 5.2 | 0.00 | 0.01 | 0.01 | 77 | 1013.4 |
| 20260906002031 | 84 | 169 | 0.0 | 5.2 | 0.00 | 0.01 | 0.01 | 77 | 1013.5 |
| 20260906001550 | 84 | 155 | 1.7 | 5.2 | 0.00 | 0.01 | 0.01 | 76 | 1013.6 |
| 20260906001031 | 84 | 159 | 2.6 | 6.1 | 0.00 | 0.01 | 0.01 | 76 | 1013.5 |
| 20260906000531 | 85 | 168 | 2.6 | 6.1 | 0.00 | 0.01 | 0.01 | 75 | 1013.5 |
| 20260906000047 | 85 | 174 | 2.6 | 6.1 | 0.00 | 0.01 | 0.01 | 74 | 1013.5 |
| 20260905235531 | 86 | 174 | 2.6 | 7.8 | 0.00 | 0.01 | 0.01 | 73 | 1013.5 |
| 20260905235031 | 86 | 169 | 2.6 | 8.7 | 0.00 | 0.01 | 0.01 | 72 | 1013.4 |
| 20260905234556 | 87 | 170 | 2.6 | 8.7 | 0.00 | 0.01 | 0.01 | 71 | 1013.4 |
| 20260905234031 | 87 | 168 | 3.5 | 8.7 | 0.00 | 0.01 | 0.01 | 70 | 1013.3 |
| 20260905233531 | 88 | 161 | 3.5 | 10.4 | 0.00 | 0.01 | 0.01 | 69 | 1013.3 |
| 20260905233051 | 88 | 182 | 5.2 | 10.4 | 0.00 | 0.01 | 0.01 | 69 | 1013.2 |
| 20260905232532 | 88 | 198 | 3.5 | 11.3 | 0.00 | 0.01 | 0.01 | 69 | 1013.1 |
| 20260905232031 | 89 | 170 | 5.2 | 12.2 | 0.00 | 0.01 | 0.01 | 68 | 1013.0 |
| 20260905231551 | 89 | 174 | 4.3 | 12.2 | 0.00 | 0.01 | 0.01 | 67 | 1013.0 |
| 20260905231034 | 89 | 178 | 6.1 | 10.4 | 0.00 | 0.01 | 0.01 | 66 | 1012.9 |
| 20260905230532 | 90 | 204 | 5.2 | 8.7 | 0.00 | 0.01 | 0.01 | 66 | 1012.9 |
| 20260905230052 | 90 | 159 | 4.3 | 11.3 | 0.00 | 0.01 | 0.01 | 65 | 1013.0 |
| 20260905225530 | 90 | 171 | 6.1 | 13.0 | 0.00 | 0.01 | 0.01 | 65 | 1013.0 |
| 20260905225032 | 90 | 188 | 7.8 | 13.0 | 0.00 | 0.01 | 0.01 | 63 | 1012.9 |
| 20260905224603 | 90 | 164 | 5.2 | 11.3 | 0.00 | 0.01 | 0.01 | 66 | 1012.9 |
| 20260905224031 | 90 | 198 | 7.0 | 11.3 | 0.00 | 0.01 | 0.01 | 65 | 1012.9 |
| 20260905223533 | 90 | 185 | 7.0 | 11.3 | 0.00 | 0.01 | 0.01 | 66 | 1013.0 |
| 20260905223051 | 90 | 189 | 4.3 | 11.3 | 0.00 | 0.01 | 0.01 | 64 | 1013.0 |
| 20260905222531 | 90 | 174 | 5.2 | 13.9 | 0.00 | 0.01 | 0.01 | 63 | 1013.0 |
| 20260905222032 | 90 | 226 | 7.8 | 19.1 | 0.00 | 0.01 | 0.01 | 64 | 1013.0 |
| 20260905221558 | 90 | 203 | 10.4 | 19.1 | 0.00 | 0.01 | 0.01 | 63 | 1013.1 |
| 20260905221033 | 90 | 208 | 8.7 | 14.8 | 0.00 | 0.01 | 0.01 | 63 | 1013.0 |
| 20260905220531 | 91 | 198 | 7.0 | 13.9 | 0.00 | 0.01 | 0.01 | 62 | 1013.0 |
| 20260905220053 | 91 | 198 | 5.2 | 11.3 | 0.00 | 0.01 | 0.01 | 62 | 1013.0 |
| 20260905215531 | 91 | 174 | 6.1 | 14.8 | 0.00 | 0.01 | 0.01 | 62 | 1012.9 |
| 20260905215030 | 91 | 167 | 6.1 | 16.5 | 0.00 | 0.01 | 0.01 | 60 | 1012.9 |
| 20260905214553 | 91 | 165 | 6.1 | 16.5 | 0.00 | 0.01 | 0.01 | 60 | 1012.9 |
| 20260905214031 | 91 | 159 | 5.2 | 16.5 | 0.00 | 0.01 | 0.01 | 62 | 1012.9 |
| 20260905213533 | 91 | 194 | 7.0 | 16.5 | 0.00 | 0.01 | 0.01 | 60 | 1012.9 |
| 20260905213051 | 90 | 186 | 7.8 | 14.8 | 0.00 | 0.01 | 0.01 | 60 | 1012.9 |
| 20260905212532 | 91 | 157 | 7.0 | 18.2 | 0.00 | 0.01 | 0.01 | 59 | 1013.0 |
| 20260905212030 | 91 | 188 | 7.8 | 18.2 | 0.00 | 0.01 | 0.01 | 59 | 1012.9 |
| 20260905211544 | 91 | 150 | 7.8 | 17.4 | 0.00 | 0.01 | 0.01 | 61 | 1012.9 |
| 20260905211031 | 91 | 178 | 8.7 | 17.4 | 0.00 | 0.01 | 0.01 | 61 | 1012.9 |
| 20260905210531 | 91 | 159 | 7.0 | 13.9 | 0.00 | 0.01 | 0.01 | 60 | 1013.0 |
| 20260905210055 | 91 | 174 | 7.8 | 13.9 | 0.00 | 0.01 | 0.01 | 60 | 1013.0 |
| 20260905205531 | 91 | 150 | 5.2 | 13.0 | 0.00 | 0.01 | 0.01 | 62 | 1013.0 |
| 20260905205031 | 91 | 145 | 6.1 | 12.2 | 0.00 | 0.01 | 0.01 | 62 | 1013.0 |
| 20260905204555 | 91 | 98 | 5.2 | 10.4 | 0.00 | 0.01 | 0.01 | 64 | 1013.0 |
| 20260905204032 | 90 | 184 | 3.5 | 9.6 | 0.00 | 0.01 | 0.01 | 64 | 1013.0 |
| 20260905203532 | 90 | 92 | 4.3 | 9.6 | 0.00 | 0.01 | 0.01 | 65 | 1012.9 |
| 20260905203103 | 89 | 128 | 3.5 | 9.6 | 0.00 | 0.01 | 0.01 | 65 | 1012.9 |
| 20260905202532 | 88 | 158 | 4.3 | 9.6 | 0.00 | 0.01 | 0.01 | 66 | 1012.9 |
| 20260905202031 | 88 | 150 | 4.3 | 13.9 | 0.00 | 0.01 | 0.01 | 65 | 1013.0 |
| 20260905201553 | 88 | 161 | 6.1 | 13.9 | 0.00 | 0.01 | 0.01 | 65 | 1013.0 |
| 20260905201030 | 87 | 169 | 6.1 | 14.8 | 0.00 | 0.01 | 0.01 | 65 | 1013.1 |
| 20260905200531 | 86 | 169 | 5.2 | 14.8 | 0.00 | 0.01 | 0.01 | 66 | 1013.2 |
| 20260905200057 | 84 | 180 | 7.8 | 15.6 | 0.00 | 0.01 | 0.01 | 68 | 1013.2 |